Location: Ramillies
(50.6368°N, 4.9145°E)
Time: 10:36:16
(UTC+02:00)

ISS - Visible Passes

Search period start: 21 September 2017 00:00
Search period end: 01 October 2017 00:00
Orbit: 402 x 407 km, 51.6° (Epoch: 21 September)

Date Brightness Start Highest point End Pass type
(mag) Time Alt. Az. Time Alt. Az. Time Alt. Az.
25 Sep -1.4 21:18:57 10° SSW 21:19:25 12° S 21:19:25 12° S visible
26 Sep -1.8 20:27:43 10° SSE 20:29:20 13° SE 20:29:45 13° SE visible
26 Sep -1.0 22:02:02 10° SW 22:02:26 13° SW 22:02:26 13° SW visible
27 Sep -3.0 21:09:55 10° SW 21:12:33 34° SSE 21:12:33 34° SSE visible
28 Sep -2.5 20:18:00 10° SSW 20:20:41 24° SE 20:22:31 15° E visible
28 Sep -1.9 21:53:34 10° WSW 21:55:11 26° WSW 21:55:11 26° WSW visible
29 Sep -3.8 21:01:15 10° WSW 21:04:28 60° SSE 21:05:00 50° ESE visible
30 Sep -3.2 20:09:01 10° SW 20:12:07 41° SSE 20:14:44 13° E visible
30 Sep -2.4 21:45:12 10° W 21:47:23 38° W 21:47:23 38° W visible
